This demonstration page uses our WeatherBlox Daily Observations layout. Learn more.

Left ArrowRight Arrow

39.95238, -75.16362

Hourly Observations for May 5, 2016

Temp ( °F °C ) Dew Point ( °F °C ) Humidity (%) Winds ( mph kmh ) Pressure ( in mb ) Visibility ( mi km ) Precip ( " mm )
12:20 am 00:20 Cloudy with Drizzle 52 11 46 8 82 82 ENE 9 15 29.74 1007 6 10 0.00 0.00
12:38 am 00:38 Cloudy 52 11 46 8 82 82 ENE 8 13 29.74 1007 9 14 0.00 0.00
12:43 am 00:43 Cloudy 51 10.6 47 8.3 86 86 ENE 8 13 29.74 1007 9 14 0.00 0.03
12:54 am 00:54 Cloudy 51 10.6 46 7.8 83 83 ENE 8 13 29.72 1007 7 11 0.00 0.03
1:24 am 01:24 Cloudy with Mist and Fog 52 11 46 8 82 82 E 12 19 29.74 1007 4 6 0.00 0.00
1:31 am 01:31 Cloudy with Light Rain 51 10.6 47 8.3 86 86 E 10 17 29.74 1007 3 5 0.00 0.03
1:40 am 01:40 Cloudy with Drizzle 50 10 46 8 88 88 E 12 19 29.74 1007 3 5 0.00 0.00
1:54 am 01:54 Cloudy with Drizzle 50 10 46 7.8 86 86 ENE 13 20 29.73 1007 4 6 0.00 0.03
1:59 am 01:59 Cloudy 50 10 46 7.8 86 86 ENE 9 15 29.74 1007 8 13 0.00 0.03
2:14 am 02:14 Cloudy 50 10 46 7.8 86 86 ENE 8 13 29.71 1006 9 14 0.00 0.03
2:40 am 02:40 Cloudy 50 10 44 6.7 80 80 ENE 10 17 29.71 1006 10 16 0.00 0.03
2:54 am 02:54 Cloudy 50 10 44 6.7 80 80 ENE 9 15 29.70 1006 10 16 0.00 0.03
3:23 am 03:23 Cloudy 50 10 44 6.7 80 80 ENE 7 11 29.71 1006 10 16 0.00 0.00
3:54 am 03:54 Cloudy 50 10 43 6.1 77 77 ENE 8 13 29.70 1006 10 16 0.00 0.00
4:50 am 04:50 Cloudy 50 10 45 7 82 82 NE 8 13 29.68 1005 10 16 0.00 0.00
4:54 am 04:54 Cloudy 50 10 44 6.7 80 80 NE 7 11 29.68 1005 10 16 0.00 0.00
5:54 am 05:54 Cloudy 50 10 43 6.1 77 77 N 14 22 29.67 1005 10 16 0.00 0.00
6:54 am 06:54 Cloudy 50 10 43 6.1 77 77 NE 12 19 29.68 1005 10 16 0.00 0.00
7:54 am 07:54 Cloudy 50 10 43 6.1 77 77 NE 12 19 29.69 1005 10 16 0.00 0.00
8:54 am 08:54 Cloudy 50 10 43 6.1 77 77 NE 15 24 29.70 1006 10 16 0.00 0.00
9:26 am 09:26 Cloudy 51 10.6 43 6.1 74 74 NE 15 24 29.71 1006 10 16 0.00 0.00
9:54 am 09:54 Cloudy 51 10.6 43 6.1 74 74 NE 16 26 29.69 1006 10 16 0.00 0.00
10:54 am 10:54 Cloudy 53 11.7 43 6.1 69 69 NE 13 20 29.69 1005 10 16 0.00 0.00
11:50 am 11:50 Cloudy 55 13 45 7 67 67 NE 14 22 29.68 1005 10 16 0.00 0.00
11:54 am 11:54 Cloudy 55 12.8 44 6.7 67 67 NE 12 19 29.68 1005 10 16 0.00 0.00
12:54 pm 12:54 Cloudy 56 13.3 45 7.2 67 67 ENE 10 17 29.66 1004 10 16 0.00 0.00
1:54 pm 13:54 Cloudy 55 12.8 44 6.7 67 67 NE 13 20 29.66 1004 10 16 0.00 0.00
2:54 pm 14:54 Cloudy 56 13.3 45 7.2 67 67 NE 13 20 29.64 1004 10 16 0.00 0.00
3:54 pm 15:54 Cloudy 56 13.3 45 7.2 67 67 ENE 10 17 29.63 1004 10 16 0.00 0.00
4:54 pm 16:54 Cloudy 57 13.9 44 6.7 62 62 NE 10 17 29.63 1003 10 16 0.00 0.00
5:54 pm 17:54 Cloudy 58 14.4 45 7.2 62 62 NE 8 13 29.63 1003 10 16 0.00 0.00
6:07 pm 18:07 Cloudy 58 14.4 44 6.7 60 60 NE 10 17 29.62 1003 10 16 0.00 0.00
6:54 pm 18:54 Cloudy 58 14.4 44 6.7 60 60 NE 12 19 29.62 1003 10 16 0.00 0.00
7:54 pm 19:54 Cloudy 58 14.4 44 6.7 60 60 NE 13 20 29.64 1004 10 16 0.00 0.00
8:54 pm 20:54 Cloudy 57 13.9 44 6.7 62 62 NE 8 13 29.65 1004 10 16 0.00 0.00
9:54 pm 21:54 Cloudy 57 13.9 45 7.2 64 64 ENE 5 7 29.67 1005 10 16 0.00 0.00
10:54 pm 22:54 Cloudy 57 13.9 44 6.7 62 62 NE 13 20 29.67 1005 10 16 0.00 0.00
11:54 pm 23:54 Cloudy 56 13.3 44 6.7 65 65 NNE 15 24 29.65 1004 10 16 0.00 0.00

Powered by AerisWeather